Wind_Speed
21 21 22 22 23 23 23 22 22 21 20 20 19 19 20 20 21 21 21 21 21 20 21 23 25 27 29 31 33 33 31 29 27 25 22 20 19 19 18 18 18 18 17
22 22 22 22 22 21 21 21 21 20 20 19 19 19 19 19 19 20 20 20 21 20 20 22 23 26 28 31 33 33 33 32 30 28 26 24 23 22 21 20 20 19 19
21 21 22 22 22 21 20 20 20 20 20 20 20 20 20 19 19 20 20 20 21 20 20 20 21 23 26 29 32 34 35 34 32 31 29 28 27 25 25 24 23 21 21
22 23 23 22 22 21 20 19 20 20 21 21 21 21 21 21 21 21 21 21 22 22 22 21 21 22 24 27 30 34 35 35 33 32 30 30 29 28 27 28 27 25 24
24 24 23 22 21 21 20 20 21 22 22 22 22 23 23 23 23 23 22 22 22 23 22 22 22 22 23 25 27 31 34 35 35 34 32 31 31 31 30 29 29 28 26
24 23 22 22 22 21 22 22 22 23 23 23 23 23 23 24 24 24 24 24 23 23 23 23 23 22 22 24 25 28 30 33 34 35 35 33 32 32 31 30 29 28 28
21 22 22 22 22 22 23 24 24 24 24 24 24 23 23 24 24 25 25 25 25 24 24 23 23 23 23 23 24 26 28 30 32 34 35 34 33 32 31 31 30 29 29
20 21 21 22 23 23 24 25 25 24 24 24 24 24 24 24 25 25 25 25 25 25 24 23 23 23 23 24 24 25 26 27 29 30 32 34 34 33 32 31 31 31 30
21 21 22 22 23 23 24 24 24 24 24 24 24 24 24 24 25 25 25 25 25 25 24 23 23 22 22 22 23 24 25 26 27 27 28 30 32 33 33 32 32 31 31
20 21 22 22 23 23 23 23 23 23 23 24 24 24 25 25 25 25 25 26 25 25 25 24 23 23 23 23 22 22 22 23 24 25 26 27 28 30 31 32 32 32 33
20 21 22 22 21 21 22 22 23 23 23 23 24 24 25 25 25 25 25 26 26 25 25 24 23 23 23 22 22 22 22 22 22 23 24 24 26 28 30 31 32 33 34
20 20 19 19 19 20 20 21 22 22 22 23 24 24 25 25 25 26 27 27 26 26 25 24 23 23 22 22 21 21 21 21 21 21 22 23 24 26 28 30 32 33 34
18 18 18 18 18 18 18 19 20 21 21 22 23 24 25 25 25 26 27 27 27 27 26 25 24 23 22 22 21 22 22 21 21 21 22 23 23 23 24 26 28 30 32
17 17 16 16 16 16 17 17 18 18 19 21 22 23 24 25 25 25 26 26 26 27 26 25 23 22 21 21 21 21 21 21 22 22 23 24 24 24 25 26 27 29 31
16 16 15 15 15 15 16 16 16 16 17 17 18 19 20 21 21 22 22 23 23 23 23 23 22 21 21 21 21 20 20 21 22 22 22 23 23 24 25 26 28 30 31
16 15 15 15 15 14 14 14 14 14 14 13 13 12 12 13 14 14 15 16 17 18 19 19 19 19 19 19 19 19 20 20 21 21 22 23 24 25 26 27 28 29 31
16 15 15 14 14 13 12 12 12 12 11 10 8 7 6 5 6 7 8 10 12 13 14 15 15 15 15 16 16 17 18 18 20 21 22 23 24 26 27 28 29 30 31
16 15 14 13 12 11 11 11 11 10 9 8 7 6 4 2 1 2 4 6 8 9 10 11 11 12 13 13 14 15 17 18 19 21 22 24 26 27 28 29 30 31 32
15 14 13 12 11 10 10 10 9 8 7 7 6 5 5 4 4 4 4 4 5 6 7 7 8 9 10 11 12 14 16 17 19 21 23 24 26 28 29 30 31 32 33
15 13 12 11 9 9 8 8 8 7 7 6 6 6 6 5 5 5 5 5 4 4 4 5 6 7 8 10 12 14 15 17 19 20 22 24 26 27 29 30 31 33 34
14 13 12 11 9 9 8 8 8 7 7 7 7 7 7 7 6 6 5 4 3 2 1 2 4 6 8 9 11 13 15 17 18 20 21 23 25 26 28 29 30 31 32
14 14 13 12 11 10 9 9 9 9 9 8 8 8 8 8 7 6 6 5 3 2 1 2 4 5 7 9 11 13 14 16 17 19 21 22 24 25 26 27 29 30 30
14 14 14 13 13 12 11 11 11 11 10 10 10 10 9 9 8 8 7 6 5 4 4 4 4 6 7 8 10 11 13 15 16 18 20 21 23 25 26 26 27 28 29
14 14 14 14 14 14 13 13 13 13 13 13 12 12 12 11 11 10 10 9 8 7 7 7 7 7 8 9 11 12 13 15 16 18 19 21 23 24 25 26 26 27 28
12 13 13 13 13 14 14 14 14 14 14 13 13 13 12 12 12 12 12 11 11 10 10 9 10 10 11 11 13 14 15 16 18 20 21 23 24 25 26 27 27 27 28
11 11 12 12 12 13 13 13 14 14 14 14 14 14 13 13 13 13 13 12 12 12 12 12 12 12 13 14 15 16 18 19 21 23 24 25 26 27 27 27 27 27 27
Wind_Direction
286 286 289 292 292 292 290 288 286 284 281 278 275 274 271 267 266 265 263 263 263 264 261 253 251 246 240 237 234 232 231 233 236 239 240 242 244 247 247 248 252 255 257
286 287 291 295 295 294 292 290 286 283 280 278 276 274 272 270 267 266 266 265 265 265 266 259 253 244 241 238 236 234 234 234 236 239 240 243 246 249 251 251 252 256 258
287 291 296 297 296 295 293 290 286 283 280 278 278 275 273 271 269 267 266 266 265 266 266 262 256 250 243 239 238 236 235 235 237 239 241 243 246 248 252 253 253 255 259
289 293 296 296 294 293 292 290 288 285 282 279 277 276 274 273 270 268 268 267 266 266 264 263 262 257 250 244 241 236 236 238 238 239 240 242 245 247 250 254 256 256 258
290 292 291 291 290 290 290 289 289 287 285 282 279 276 274 273 271 269 267 267 267 266 264 262 262 258 254 249 243 238 238 239 241 241 241 242 245 248 251 254 257 258 258
290 291 292 290 289 288 288 288 288 287 285 283 280 277 274 272 270 268 267 266 266 265 264 262 261 259 257 252 248 245 243 243 242 240 241 243 246 250 254 256 256 258 258
289 292 290 290 292 292 290 288 287 286 284 282 280 277 274 272 269 267 266 265 264 265 264 263 262 260 259 258 253 249 247 245 243 243 242 243 244 248 253 256 257 257 256
293 293 293 291 290 290 289 287 286 285 283 281 278 275 272 271 270 268 266 264 264 263 264 263 262 260 259 259 257 253 250 248 246 245 244 243 244 245 248 253 256 256 255
293 293 293 291 290 290 289 287 286 284 282 279 277 274 272 269 267 267 266 264 263 262 262 262 260 258 257 258 257 254 250 248 246 246 247 246 244 244 245 249 252 254 255
296 295 294 293 292 291 289 288 287 285 282 279 275 273 271 268 266 265 263 262 261 260 259 259 258 259 258 257 256 254 252 250 248 248 249 248 247 246 246 247 248 251 254
298 296 295 294 292 291 290 289 287 285 282 279 276 273 270 267 265 264 262 259 259 258 258 256 256 258 257 256 254 253 252 251 250 250 250 251 251 251 250 249 249 252 254
302 300 298 296 294 293 292 291 289 286 282 279 277 274 271 267 264 261 260 258 257 255 254 253 253 255 256 254 253 252 252 252 252 251 251 252 254 253 254 254 254 255 256
307 305 302 300 299 297 297 296 293 289 285 281 278 275 273 269 265 262 260 258 255 254 253 252 251 252 253 252 250 249 250 251 252 253 254 255 257 259 260 262 262 260 260
313 310 308 306 304 304 304 303 300 295 291 286 282 278 274 270 266 262 259 256 254 252 251 249 248 248 249 249 249 249 249 251 252 255 257 260 262 264 265 265 266 265 264
319 316 313 312 311 311 312 312 309 305 302 297 291 284 277 272 267 263 258 253 250 247 246 245 245 246 246 247 247 247 250 253 255 257 259 261 264 266 269 269 269 269 268
325 322 319 317 317 316 317 319 319 318 316 313 307 298 286 274 262 257 251 246 240 235 236 236 238 240 242 245 247 249 252 255 258 260 263 265 267 269 271 271 271 272 270
328 325 321 319 319 320 322 325 329 331 333 334 333 326 313 289 262 249 239 229 224 225 226 228 233 238 240 245 248 251 255 259 262 264 266 267 269 271 272 273 272 273 273
329 327 324 323 324 325 328 332 338 344 350 356 2 7 12 24 81 189 197 202 205 210 214 222 230 237 241 247 252 256 261 265 267 269 270 271 272 273 275 275 274 274 273
335 333 330 329 330 333 336 341 349 357 5 14 23 34 47 60 79 107 130 154 177 192 205 219 230 238 245 253 259 263 266 270 273 274 275 276 277 278 277 276 276 276 275
346 346 344 343 344 345 348 355 5 15 23 32 40 50 59 68 82 100 114 123 140 168 196 219 236 247 258 266 272 275 277 278 280 280 280 280 281 281 281 280 279 279 278
356 358 2 4 6 8 12 18 28 37 45 52 57 62 69 77 83 93 104 110 117 130 174 252 271 277 281 283 285 287 287 287 287 287 286 286 286 285 285 284 283 282 281
9 13 18 22 25 29 34 40 46 52 58 62 66 70 73 76 79 83 85 86 82 69 24 329 311 306 304 302 300 298 297 296 296 295 296 295 294 293 292 290 288 286 285
19 23 27 30 35 39 45 51 57 62 66 69 71 73 74 74 74 73 73 71 65 54 35 11 352 339 331 326 322 319 316 313 310 309 307 305 304 302 300 297 295 293 290
26 30 34 38 44 49 54 58 64 69 72 73 75 75 74 72 70 68 67 65 61 55 45 33 22 11 360 350 344 339 335 330 327 324 320 318 315 313 310 306 302 298 295
32 36 39 44 50 56 61 64 67 71 73 74 75 75 73 72 70 68 65 62 57 51 43 34 25 16 7 0 354 348 343 339 335 331 328 324 321 318 315 312 308 304 300
35 39 42 48 54 60 64 66 68 70 71 72 72 72 71 69 67 64 61 56 51 44 37 30 23 16 9 3 357 352 348 344 341 338 335 331 328 324 321 318 314 310 306
Height
5796 5796 5794 5793 5792 5790 5789 5788 5787 5786 5786 5785 5785 5786 5786 5786 5787 5788 5789 5791 5792 5794 5795 5797 5799 5801 5804 5808 5812 5816 5820 5823 5826 5829 5832 5834 5836 5838 5840 5842 5843 5845 5847
5790 5790 5789 5787 5786 5785 5784 5782 5782 5781 5781 5780 5780 5781 5781 5781 5782 5783 5784 5785 5787 5788 5789 5790 5792 5794 5797 5800 5804 5808 5812 5815 5819 5822 5826 5828 5831 5833 5834 5837 5839 5840 5841
5784 5783 5783 5782 5781 5779 5778 5777 5776 5776 5775 5775 5775 5775 5776 5776 5777 5778 5779 5780 5781 5783 5784 5785 5787 5789 5791 5794 5797 5800 5804 5808 5812 5815 5818 5822 5824 5827 5829 5830 5833 5835 5836
5777 5777 5777 5776 5775 5774 5773 5772 5771 5770 5770 5770 5770 5770 5770 5771 5772 5773 5773 5775 5776 5777 5778 5780 5781 5782 5784 5787 5789 5793 5796 5800 5804 5807 5811 5814 5817 5820 5822 5824 5826 5829 5831
5773 5772 5771 5771 5770 5769 5768 5767 5766 5765 5764 5764 5764 5764 5764 5765 5766 5767 5768 5769 5770 5771 5773 5774 5775 5776 5778 5780 5782 5785 5789 5792 5796 5799 5803 5806 5809 5812 5815 5817 5819 5821 5824
5768 5766 5765 5764 5764 5763 5762 5761 5761 5760 5759 5758 5758 5758 5758 5758 5759 5760 5761 5763 5764 5765 5766 5768 5769 5770 5772 5773 5775 5778 5781 5784 5787 5791 5795 5798 5801 5803 5806 5809 5811 5814 5816
5762 5761 5760 5759 5758 5757 5756 5755 5754 5753 5753 5752 5751 5751 5751 5751 5752 5753 5754 5756 5757 5759 5760 5762 5763 5764 5766 5767 5769 5771 5774 5776 5780 5783 5786 5790 5793 5795 5798 5800 5803 5805 5807
5758 5757 5755 5754 5752 5751 5750 5748 5747 5747 5746 5745 5744 5744 5745 5745 5745 5746 5747 5749 5750 5752 5754 5755 5757 5758 5760 5761 5763 5765 5767 5769 5772 5775 5778 5781 5784 5787 5789 5791 5793 5795 5798
5753 5751 5750 5748 5746 5745 5743 5742 5740 5739 5739 5738 5737 5737 5738 5738 5739 5739 5740 5742 5744 5745 5747 5749 5751 5752 5754 5755 5757 5758 5760 5762 5765 5767 5770 5773 5775 5778 5781 5783 5785 5786 5788
5748 5746 5744 5742 5740 5739 5737 5735 5734 5733 5732 5731 5730 5730 5730 5731 5732 5732 5734 5735 5737 5739 5741 5742 5744 5746 5747 5749 5751 5752 5754 5756 5758 5760 5763 5765 5767 5770 5772 5774 5776 5777 5779
5743 5741 5739 5737 5735 5733 5731 5729 5728 5726 5725 5724 5723 5723 5723 5723 5724 5725 5726 5728 5730 5732 5734 5736 5738 5739 5741 5743 5745 5746 5748 5750 5752 5754 5756 5758 5760 5762 5764 5765 5767 5769 5771
5738 5735 5733 5731 5729 5727 5725 5723 5721 5719 5718 5717 5716 5715 5715 5716 5716 5717 5718 5720 5722 5724 5727 5729 5731 5733 5735 5737 5739 5741 5742 5744 5746 5747 5749 5751 5753 5754 5755 5757 5758 5759 5761
5733 5731 5729 5726 5724 5722 5720 5718 5715 5713 5711 5710 5709 5708 5707 5708 5709 5709 5711 5713 5715 5717 5720 5722 5725 5727 5729 5731 5733 5735 5737 5738 5740 5742 5743 5744 5745 5746 5747 5749 5750 5751 5752
5729 5727 5724 5722 5720 5717 5715 5712 5710 5707 5705 5703 5701 5700 5700 5700 5700 5701 5703 5705 5707 5710 5713 5715 5718 5721 5723 5725 5727 5729 5731 5732 5734 5735 5737 5738 5739 5739 5740 5741 5742 5742 5743
5726 5723 5721 5718 5716 5713 5710 5708 5705 5702 5699 5697 5695 5693 5692 5692 5692 5693 5695 5697 5700 5703 5706 5709 5712 5715 5718 5720 5721 5723 5725 5726 5728 5729 5730 5731 5731 5732 5732 5733 5733 5733 5734
5723 5720 5717 5715 5712 5710 5707 5704 5701 5698 5695 5692 5689 5688 5686 5686 5686 5687 5689 5691 5694 5697 5701 5704 5707 5710 5712 5714 5716 5718 5719 5721 5722 5723 5723 5724 5724 5724 5724 5724 5724 5724 5724
5721 5718 5715 5712 5709 5707 5704 5701 5698 5695 5692 5689 5687 5685 5684 5683 5684 5685 5686 5688 5690 5694 5697 5700 5703 5705 5708 5710 5711 5713 5714 5715 5716 5716 5717 5717 5716 5716 5716 5715 5715 5714 5713
5719 5715 5712 5710 5707 5704 5702 5699 5696 5694 5691 5689 5687 5685 5684 5684 5684 5684 5686 5687 5689 5692 5695 5698 5700 5702 5704 5706 5707 5708 5709 5710 5710 5710 5709 5709 5708 5708 5707 5706 5705 5704 5704
5717 5714 5711 5708 5705 5703 5700 5698 5696 5693 5692 5690 5688 5687 5686 5686 5686 5686 5687 5688 5690 5692 5694 5696 5698 5700 5701 5702 5703 5704 5704 5704 5704 5703 5703 5702 5701 5699 5698 5696 5695 5694 5693
5716 5713 5709 5707 5704 5702 5700 5698 5696 5694 5692 5691 5690 5689 5689 5688 5688 5688 5689 5690 5691 5692 5694 5695 5697 5698 5699 5699 5699 5699 5699 5699 5698 5697 5696 5694 5693 5691 5689 5687 5685 5683 5682
5716 5713 5710 5707 5704 5702 5700 5698 5696 5695 5694 5693 5692 5691 5691 5691 5690 5691 5691 5692 5692 5693 5694 5695 5695 5696 5696 5696 5696 5695 5694 5693 5692 5691 5689 5687 5685 5682 5680 5677 5675 5673 5671
5717 5714 5711 5708 5706 5704 5702 5700 5698 5697 5696 5695 5694 5694 5694 5693 5693 5693 5693 5693 5694 5694 5694 5694 5694 5694 5694 5693 5693 5692 5690 5689 5687 5685 5683 5680 5677 5674 5671 5668 5665 5663 5660
5719 5716 5714 5711 5709 5706 5704 5703 5701 5700 5699 5698 5698 5697 5697 5696 5696 5696 5696 5696 5695 5695 5695 5695 5694 5694 5693 5692 5690 5689 5687 5685 5682 5680 5677 5674 5671 5667 5663 5660 5657 5653 5650
5722 5719 5717 5715 5712 5710 5708 5707 5705 5704 5703 5702 5701 5701 5700 5700 5699 5699 5698 5698 5698 5697 5697 5696 5695 5694 5693 5691 5689 5687 5684 5682 5679 5676 5672 5669 5665 5660 5656 5652 5648 5644 5641
5725 5723 5721 5719 5717 5715 5713 5712 5710 5709 5708 5707 5706 5705 5704 5704 5703 5703 5702 5701 5700 5699 5698 5697 5696 5695 5693 5691 5688 5686 5683 5680 5676 5672 5668 5664 5659 5654 5649 5644 5640 5636 5632
5728 5726 5725 5723 5721 5720 5718 5717 5715 5714 5713 5712 5710 5710 5709 5708 5707 5706 5705 5704 5703 5702 5701 5699 5697 5695 5693 5691 5688 5685 5681 5677 5673 5668 5663 5658 5653 5647 5642 5637 5631 5627 5622